This is the latest recevied weather packets stored in our database for station/object KY0TEQ-13. If no packets are shown the sender has not sent any weather packets the latest 10 day(s).
| Time | Temp. | Humidity | Pressure | Rain* | Wind** | Luminosity | Snow |
|---|---|---|---|---|---|---|---|
| 1777333818 | 12.78° C | 26% | 1297.8 hPa | 0 mm | - | 122 W/m² | - |
| 1777333515 | 13.89° C | 25% | 1298.2 hPa | 0 mm | - | 99 W/m² | - |
| 1777333212 | 13.89° C | 25% | 1297.8 hPa | 0 mm | - | 363 W/m² | - |
| 1777332910 | 12.78° C | 26% | 1298.1 hPa | 0 mm | - | 241 W/m² | - |
| 1777332609 | 12.78° C | 26% | 1298.1 hPa | 0 mm | - | 70 W/m² | - |
| 1777332304 | 14.44° C | 24% | 1297.9 hPa | 0 mm | - | 363 W/m² | - |
| 1777332001 | 13.89° C | 24% | 1298.2 hPa | 0 mm | - | 260 W/m² | - |
| 1777331699 | 13.89° C | 23% | 1298.1 hPa | 0 mm | - | 164 W/m² | - |
| 1777331395 | 15° C | 25% | 1298.3 hPa | 0 mm | - | 406 W/m² | - |
| 1777331093 | 13.89° C | 24% | 1298.1 hPa | 0 mm | - | 478 W/m² | - |
| 1777330790 | 12.78° C | 26% | 1298.4 hPa | 0 mm | - | 542 W/m² | - |
| 1777330487 | 12.22° C | 27% | 1298.4 hPa | 0 mm | - | 113 W/m² | - |
| 1777330184 | 12.78° C | 27% | 1298.5 hPa | 0 mm | - | 136 W/m² | - |
| 1777329883 | 12.22° C | 29% | 1298.4 hPa | 0 mm | - | 555 W/m² | - |
| 1777329581 | 12.22° C | 28% | 1298.7 hPa | 0 mm | - | 517 W/m² | - |
| 1777329279 | 12.78° C | 28% | 1298.4 hPa | 0 mm | - | 136 W/m² | - |
| 1777328976 | 12.78° C | 28% | 1298.4 hPa | 0 mm | - | 553 W/m² | - |
| 1777328674 | 12.78° C | 28% | 1298.5 hPa | 0 mm | - | 603 W/m² | - |
| 1777328371 | 12.78° C | 28% | 1298.7 hPa | 0 mm | - | 189 W/m² | - |
| 1777328070 | 12.78° C | 30% | 1298.5 hPa | 0 mm | - | 189 W/m² | - |
| 1777327768 | 12.22° C | 30% | 1298.7 hPa | 0 mm | - | 192 W/m² | - |
| 1777327465 | 12.22° C | 31% | 1298.8 hPa | 0 mm | - | 265 W/m² | - |
| 1777327162 | 11.67° C | 30% | 1298.7 hPa | 0 mm | - | 212 W/m² | - |
| 1777326859 | 11.67° C | 30% | 1298.7 hPa | 0 mm | - | 178 W/m² | - |
| 1777326555 | 12.22° C | 32% | 1298.9 hPa | 0 mm | - | 222 W/m² | - |
* Rain latest hour (hover to see other rain measurements)
** Current wind speed in m/s (hover to see current wind gust speed)